Flag for Germany Weather past 2 weeks in Konstanz, Baden-Württemberg, Germany

Now
91 °F

Scattered clouds.


Feels Like: 90 °F
Forecast: 67 / 86 °F
Wind: 2 mph from Southeast

Location: Konstanz

Current Time: Jul 5, 2015 at 8:22:13 PM

Latest Report: Jul 5, 2015 at 8:00 PM


Visibility: 16 mi

Pressure: 29.86 "Hg

Humidity: 33%

Dew point: 58 °F

Location of KonstanzLocation

Historic Weather in Konstanz — Graph

°F

Konstanz temperature yesterday

Maximum temperature yesterday: 95 °F (at 5:00 PM)
Minimum temperature yesterday: 69 °F (at 6:00 AM)
Average temperature yesterday: 81 °F

Past Weeks' High & Low Weather Summary

 TemperatureHumidityPressure
High95 °F (Jul 4, 5:00 PM)94% (Jun 21, 9:00 AM)30.23 "Hg (Jun 21, 9:00 AM)
Low49 °F (Jun 24, 5:00 AM)21% (Jun 26, 4:00 PM)29.72 "Hg (Jun 22, 10:00 PM)
Average70 °F63%30.09 "Hg
* Reported Jun 20 7:00 PM — Jul 5 7:00 PM, Konstanz, Weather by CustomWeather, © 2015

Note: Actual official high and low records may vary slightly from our data, if they occured in-between our weather recording intervals... More about our weather records

Advertising

Konstanz weather history for previous 24 hours

 ConditionsComfort  
Time TempWeatherWind HumidityBarometerVisibility
7:00 PM
Sun, Jul 5
93 °FPartly sunny.2 mph32%29.87 "Hg15 mi
6:00 PM94 °FPassing clouds.2 mph44%29.88 "Hg12 mi
5:00 PM93 °FPassing clouds.3 mph41%29.89 "Hg14 mi
4:00 PM92 °FPassing clouds.3 mph44%29.92 "Hg16 mi
3:00 PM92 °FPassing clouds.1 mph46%29.93 "Hg16 mi
2:00 PM91 °FPassing clouds.2 mph48%29.95 "Hg15 mi
1:00 PM88 °FPassing clouds.2 mph50%29.97 "Hg15 mi
12:00 PM85 °FPassing clouds.2 mph52%29.99 "Hg15 mi
11:00 AM84 °FPassing clouds.1 mph53%30.01 "Hg14 mi
10:00 AM82 °FPassing clouds.1 mph56%30.03 "Hg12 mi
9:00 AM77 °FPassing clouds.2 mph67%30.05 "Hg9 mi
8:00 AM74 °FPassing clouds.1 mph76%30.05 "Hg6 mi
7:00 AM71 °FPassing clouds.2 mph87%30.06 "Hg6 mi
5:00 AM72 °FFog.2 mph86%30.06 "Hg4 mi
4:00 AM73 °FClear.2 mph83%30.06 "Hg12 mi
3:00 AM74 °FClear.2 mph87%30.07 "Hg9 mi
2:00 AM75 °FClear.1 mph76%30.07 "Hg5 mi
1:00 AM76 °FClear.1 mph77%30.08 "Hg7 mi
12:00 AM78 °FClear.2 mph72%30.08 "Hg14 mi
11:00 PM
Sat, Jul 4
81 °FClear.1 mph62%30.07 "Hg19 mi
10:00 PM82 °FClear.2 mph63%30.06 "Hg19 mi
9:00 PM85 °FPartly sunny.2 mph50%30.06 "Hg22 mi
8:00 PM90 °FPartly sunny.2 mph39%30.04 "Hg19 mi
Weather by CustomWeather, © 2015

See weather overviewHow to use our weather pages